GFSGL_925_thetae_021.txt.gz
Theta_e
327 327 331 329 330 330 329 326 329 329 330 330 330 329 328 329 330 329 330 329 328 328 327 326 326 326 326 327 327 328 328 328 328 329 329 328 329 329 329 328 329 328 327
327 326 330 330 331 329 330 328 326 327 328 329 330 330 329 330 330 329 329 327 327 327 327 326 325 326 327 328 328 328 328 328 328 328 329 329 330 329 327 329 329 327 319
327 325 328 330 330 331 331 330 328 328 327 329 330 330 330 331 330 330 330 328 327 327 326 326 326 327 327 326 327 327 326 328 328 328 329 329 329 330 329 328 325 326 320
326 325 326 329 330 329 331 329 328 329 329 328 328 329 330 330 330 330 329 329 327 327 327 327 326 327 326 326 325 326 325 325 327 327 328 327 328 329 327 324 322 320 320
325 325 325 327 329 329 331 331 330 330 328 329 330 329 330 330 329 329 328 328 327 327 327 327 327 327 326 326 326 326 326 327 326 325 324 321 321 321 322 321 321 321 322
325 325 324 326 328 330 329 330 331 328 324 327 329 328 329 328 329 328 329 328 328 327 327 327 327 327 327 326 327 329 327 327 325 323 322 321 319 321 322 318 318 325 324
324 324 324 324 325 330 328 327 328 326 324 323 324 329 330 328 328 328 329 329 328 327 327 327 328 327 327 328 329 325 325 322 321 320 320 321 323 323 324 325 325 324 324
322 323 324 323 325 329 329 328 328 328 324 322 323 324 326 329 330 330 329 329 329 328 328 327 327 327 328 326 324 323 324 326 328 326 323 324 324 323 323 323 324 323 325
321 321 322 322 324 326 328 328 327 329 325 323 320 322 324 325 327 327 326 328 330 330 330 329 329 328 323 324 323 323 322 323 323 323 322 324 326 326 325 326 327 325 319
321 321 320 321 323 323 327 327 327 326 328 324 322 320 324 326 327 326 326 326 327 326 324 323 325 321 320 321 321 320 320 320 317 316 312 312 313 314 314 313 311 311 311
321 322 319 319 322 323 326 326 326 327 325 328 326 324 318 322 324 325 327 326 326 325 323 326 326 323 321 319 322 322 321 320 316 316 315 316 315 315 315 314 311 312 312
322 323 320 318 321 322 325 328 327 329 328 328 328 326 324 320 315 318 319 325 324 324 323 323 323 320 318 318 319 320 319 318 315 313 315 317 316 314 314 313 313 312 310
323 323 321 318 320 322 325 326 328 327 330 327 327 326 325 323 315 312 315 320 320 317 317 316 316 311 309 317 318 318 314 310 311 316 316 314 314 314 312 311 310 309 309
324 323 322 319 321 322 325 327 328 327 327 327 327 324 324 322 319 311 311 313 315 316 312 310 307 305 304 306 306 307 308 310 315 317 314 310 310 311 311 309 308 305 306
325 325 322 319 320 324 324 327 327 326 325 327 323 323 323 323 320 307 311 312 317 318 313 310 304 304 303 305 310 314 312 313 316 313 312 310 309 308 305 304 305 305 303
325 325 322 321 323 323 324 326 326 325 325 324 324 322 322 321 320 312 309 312 318 318 316 314 313 311 310 312 314 315 315 317 315 314 311 308 305 304 305 304 303 302 301
326 326 324 322 324 324 324 325 324 324 323 321 321 321 320 321 320 318 306 311 313 319 319 318 317 316 318 317 318 318 314 315 313 310 308 304 304 305 302 302 301 302 301
326 326 325 324 322 324 323 324 324 321 320 321 319 319 318 321 321 320 315 306 311 313 314 315 321 322 322 321 317 315 312 309 309 307 304 305 304 302 302 302 301 300 299
327 326 325 325 323 322 323 323 324 321 319 319 318 317 317 318 320 320 319 309 310 314 314 314 319 324 322 319 317 315 312 308 306 304 305 303 302 301 302 301 300 299 299
327 327 326 324 326 323 322 322 321 322 320 318 318 317 316 317 316 317 315 314 314 314 315 317 322 322 321 317 314 310 308 303 304 304 302 302 302 302 301 300 299 299 298
329 327 327 326 323 325 324 322 321 320 320 319 319 318 317 317 317 316 315 315 315 315 316 317 320 319 315 313 311 308 304 304 303 302 301 301 302 302 301 300 299 298 298
331 328 326 326 326 323 324 323 323 321 319 320 319 320 319 317 317 316 315 315 318 319 322 321 319 317 315 313 309 303 303 303 302 301 301 301 301 301 301 299 299 298 297
331 330 328 325 325 326 325 324 324 323 321 319 320 319 319 316 316 315 315 314 315 318 321 321 317 313 312 308 304 302 302 301 300 301 302 301 300 299 299 299 298 297 296
331 332 329 327 325 326 324 324 324 324 323 323 321 319 318 316 316 316 316 316 316 318 317 315 313 312 307 304 303 302 300 299 301 301 300 300 299 299 299 297 296 295 295
329 331 331 329 327 327 327 326 325 326 324 324 322 319 316 315 316 316 318 317 315 313 311 310 309 305 304 302 300 298 299 300 300 300 299 299 299 298 297 295 294 293 292
330 329 331 331 329 328 328 328 328 326 326 324 322 318 316 318 318 317 315 313 311 309 308 307 304 302 300 299 297 299 298 297 298 298 298 298 297 296 294 293 292 291 290

GFSGL_925_thetae_024.txt.gz
Theta_e
328 329 330 330 330 329 326 329 328 329 329 329 329 328 329 329 328 328 328 329 329 328 328 328 327 327 327 327 327 328 328 328 329 328 328 328 329 326 328 327 329 328 325
327 329 329 330 329 329 326 327 329 329 329 329 328 328 329 329 328 329 329 329 328 327 327 326 326 326 326 327 327 328 327 328 328 328 328 328 328 327 327 329 329 328 328
326 328 330 330 330 330 328 326 327 327 329 329 329 328 329 329 330 329 328 327 326 325 324 325 325 326 326 327 328 328 328 328 328 328 328 328 328 328 328 328 328 329 327
326 326 329 329 329 330 328 328 328 328 328 329 329 329 329 329 329 329 327 326 326 327 326 325 326 327 327 327 326 327 328 327 328 328 328 329 329 329 328 329 327 324 324
325 325 329 329 329 330 330 328 330 329 329 329 328 329 329 329 328 327 327 326 326 325 325 326 326 326 327 327 326 325 326 326 327 327 326 327 328 328 328 328 324 321 320
325 324 328 327 329 329 331 330 327 328 330 328 329 329 329 328 328 327 327 326 326 326 326 327 326 326 325 325 326 326 326 326 326 325 323 322 323 325 324 325 321 320 322
325 324 326 326 328 330 329 331 325 327 327 327 329 328 329 328 328 327 327 327 326 326 327 327 325 325 325 326 326 327 327 326 327 325 324 324 323 321 319 320 319 318 323
324 324 324 325 327 329 327 329 325 323 324 328 329 328 328 328 327 328 328 328 327 327 327 326 326 326 326 327 326 324 325 326 324 320 320 320 320 322 322 323 323 323 322
323 323 323 324 326 329 328 327 325 323 322 324 327 329 329 329 328 328 328 329 327 327 327 327 326 327 327 326 322 324 325 325 326 324 322 323 325 325 325 324 326 324 319
322 322 322 323 325 327 328 328 326 325 321 321 323 325 326 327 328 328 329 329 328 328 327 327 327 328 326 323 323 322 322 322 321 320 319 316 313 312 312 312 313 311 310
321 321 322 322 323 323 327 327 327 326 323 320 321 324 326 326 327 327 327 328 329 329 328 328 328 324 321 321 321 320 319 315 314 314 315 315 314 314 314 312 312 312 311
320 320 320 320 322 322 325 326 326 326 326 324 321 319 324 325 326 326 326 326 323 322 322 324 322 320 320 320 322 321 320 316 316 314 315 316 316 316 313 312 312 311 310
320 320 320 319 321 322 323 326 326 326 326 327 325 323 319 316 320 321 324 326 325 323 321 323 324 322 320 318 319 318 318 315 313 315 315 314 312 311 311 309 309 308 304
320 320 319 319 321 322 324 325 325 326 328 327 327 325 323 322 317 314 316 318 323 322 321 321 320 319 315 317 316 313 310 310 312 316 315 314 313 311 310 308 306 306 302
320 320 318 318 321 322 324 326 326 325 325 328 327 326 324 323 321 315 313 314 320 318 316 315 315 308 307 310 305 306 308 311 316 315 313 311 309 306 305 305 305 303 301
321 321 319 317 320 322 324 325 325 324 324 325 327 325 323 322 320 318 310 312 314 315 314 310 306 302 302 303 307 311 311 313 315 314 311 308 305 304 305 303 301 301 300
323 322 319 319 320 321 323 324 324 325 325 324 324 325 323 322 321 320 310 310 313 316 313 309 305 304 304 306 310 313 314 315 314 312 311 307 305 304 303 301 300 300 299
323 323 320 320 320 321 322 322 323 323 323 325 324 323 323 322 321 320 319 307 313 315 313 314 314 314 312 311 311 313 315 314 313 313 308 305 304 302 301 301 300 298 297
324 323 322 320 321 321 321 322 322 321 321 321 321 322 321 320 318 320 320 307 309 316 319 319 318 316 315 315 316 316 315 314 312 307 304 304 302 301 301 300 299 298 298
324 324 323 321 321 321 321 322 322 321 320 319 320 321 319 317 317 317 318 311 306 310 313 317 317 316 319 320 318 315 314 311 307 305 305 302 301 300 301 299 298 298 298
325 324 324 323 321 321 321 321 321 321 320 319 319 320 320 318 317 317 318 317 311 307 309 311 312 314 317 320 317 314 312 308 305 305 303 302 301 301 299 299 299 298 298
326 324 323 323 323 322 321 321 321 320 320 319 319 320 319 319 317 316 317 317 317 312 309 309 312 314 315 320 317 314 310 306 305 303 302 301 301 299 299 298 298 298 297
327 326 324 324 323 323 323 321 321 320 319 319 319 319 319 317 315 316 315 316 316 316 315 314 314 315 317 319 316 313 309 306 304 302 301 301 301 301 299 298 298 297 296
329 327 325 324 324 323 321 322 322 321 320 319 319 318 319 319 317 316 316 315 315 316 316 315 315 315 315 312 309 308 305 303 302 301 301 300 300 300 299 298 296 295 295
329 329 327 325 324 323 323 322 322 322 321 321 319 318 318 318 319 317 315 315 315 315 317 317 316 314 313 311 309 305 303 302 301 301 301 300 299 299 299 296 295 293 291
329 329 329 327 325 324 323 323 323 323 322 322 322 321 319 318 317 316 316 315 315 315 315 314 313 312 309 307 304 302 301 301 301 300 299 299 299 298 296 294 292 291 289

GFSGL_925_thetae_030.txt.gz
Theta_e
328 328 328 329 328 326 327 328 328 328 328 329 329 328 327 327 326 326 326 327 327 327 327 327 327 328 328 327 327 327 327 328 328 327 326 327 328 327 326 325 324 324 324
327 328 328 329 327 325 328 328 328 328 328 328 328 328 328 327 326 327 327 326 325 326 326 327 327 327 326 327 327 327 327 327 328 327 326 327 326 325 324 325 325 325 324
327 328 329 328 328 326 326 326 328 328 328 328 328 328 328 327 327 327 328 326 326 325 325 325 326 326 326 327 327 327 328 328 327 326 327 327 325 324 326 327 327 327 326
326 328 329 329 328 326 326 327 328 328 328 327 328 328 328 327 327 327 327 326 326 326 325 325 325 326 326 327 328 327 328 328 328 327 327 326 327 327 327 327 328 327 328
325 328 328 328 328 327 327 327 327 328 329 328 328 329 327 327 327 327 326 325 323 322 323 325 325 326 327 327 328 328 328 327 326 326 326 325 326 326 326 327 326 322 321
324 327 328 328 328 327 328 328 328 328 328 328 328 328 327 327 327 326 325 323 323 323 323 325 326 326 327 327 326 326 327 327 326 326 325 325 325 326 326 327 326 320 318
324 326 327 327 329 329 328 325 327 328 328 328 327 327 327 327 326 326 326 325 324 324 325 325 325 326 326 326 326 327 327 327 327 327 327 326 326 327 327 326 323 318 321
323 324 327 327 328 329 328 324 326 325 328 327 328 327 327 327 327 326 325 326 326 326 326 326 326 326 326 325 326 325 326 326 326 325 326 327 327 327 322 320 320 317 315
323 323 326 327 327 329 329 324 324 324 327 327 327 327 326 327 326 326 326 326 326 326 326 325 324 325 323 324 323 324 324 324 325 322 322 323 320 321 319 320 320 320 317
323 323 325 326 328 327 329 324 322 324 326 326 326 327 327 326 326 326 325 326 326 325 326 325 324 326 326 323 323 322 324 323 323 320 320 321 324 322 321 321 322 322 314
323 323 323 324 327 326 329 324 322 322 324 324 324 326 327 327 327 327 326 326 326 326 325 325 324 325 326 323 322 322 325 324 322 321 321 319 316 316 317 318 321 319 311
323 323 323 323 327 326 326 323 322 321 322 322 322 322 324 327 328 328 327 326 326 326 326 325 325 326 326 323 322 322 322 322 321 319 313 311 311 311 311 311 311 312 312
322 322 322 322 324 327 327 324 322 320 319 319 321 322 321 324 325 328 328 327 327 326 326 325 325 326 324 321 320 320 319 318 314 313 313 312 312 311 310 310 309 310 309
321 321 321 321 322 325 326 326 324 321 320 319 319 321 322 322 324 325 326 327 327 326 326 326 326 325 319 318 319 320 315 314 314 314 314 312 310 309 308 309 309 306 305
320 319 320 320 321 322 324 326 326 325 324 321 320 319 321 322 323 323 324 324 324 324 324 325 323 318 317 317 319 317 314 314 314 313 313 311 309 307 307 308 307 304 299
318 317 318 319 319 321 322 324 325 325 325 324 324 323 322 319 319 323 322 323 323 322 320 321 320 319 317 315 315 314 313 313 313 313 312 310 309 307 307 305 306 303 297
318 317 316 317 318 319 320 321 322 323 324 324 324 324 325 325 324 321 316 318 317 322 321 320 319 319 319 316 314 314 314 312 311 312 312 311 311 309 307 303 301 299 295
318 318 317 317 317 319 320 320 321 322 322 323 324 324 324 325 325 324 322 318 311 312 315 320 318 316 316 317 315 313 311 309 309 311 312 311 310 308 305 302 299 297 294
318 317 317 317 317 318 319 320 320 321 321 321 323 323 323 325 325 324 323 321 317 310 311 312 315 316 314 313 313 311 309 308 308 310 311 310 308 306 302 301 300 296 294
319 318 318 317 317 318 319 320 320 320 320 320 321 322 322 323 322 322 321 321 319 317 315 310 311 312 313 313 310 310 305 305 307 310 311 310 308 305 302 301 299 295 295
319 319 318 317 317 318 318 319 320 320 319 319 319 320 320 322 321 322 322 321 320 319 319 318 310 309 312 312 311 307 304 304 307 310 309 308 306 302 301 300 297 295 295
320 319 318 318 318 318 318 319 319 319 319 319 319 319 320 320 320 319 319 320 321 320 319 319 318 318 312 310 313 311 307 306 307 310 311 308 305 301 300 298 297 296 296
320 319 318 319 319 319 318 319 319 319 319 319 319 318 319 319 319 319 319 318 316 318 320 319 316 317 317 316 312 312 315 315 316 313 310 306 304 301 300 298 297 297 296
321 320 319 320 319 319 319 319 319 319 319 319 319 318 318 319 319 319 319 318 317 318 317 317 317 317 317 316 316 313 311 313 316 312 308 304 301 301 300 298 297 297 297
321 321 321 320 320 319 319 319 319 319 319 319 319 319 319 319 319 319 319 320 319 318 318 318 317 317 316 316 315 314 312 311 312 310 308 306 303 301 298 297 297 297 296
322 322 321 321 321 320 320 319 319 319 319 319 319 319 319 319 319 320 320 319 319 319 319 318 318 316 315 314 313 312 311 310 309 309 307 303 301 298 297 299 298 297 296

GFSGL_925_thetae_033.txt.gz
Theta_e
330 330 331 331 330 328 330 330 330 330 330 330 330 329 329 328 328 328 328 328 329 329 329 329 327 328 327 327 328 329 328 328 329 327 328 327 326 325 324 324 323 322 321
330 330 331 330 328 329 330 330 331 330 330 330 330 330 328 328 327 327 328 327 327 327 326 327 327 329 330 327 327 329 329 328 328 327 328 327 325 324 324 324 323 323 324
329 330 331 330 329 329 329 330 331 330 330 329 330 329 328 328 326 327 327 326 326 326 328 328 327 328 329 330 329 330 329 328 327 327 327 326 325 325 324 324 324 324 324
328 330 331 331 329 329 329 330 331 331 330 330 330 330 329 326 326 326 326 325 324 325 326 326 327 329 329 329 329 329 330 327 327 327 326 326 324 325 325 325 325 323 323
328 329 331 331 329 329 329 330 331 331 330 328 328 328 329 327 327 326 324 324 324 323 324 324 326 327 328 329 329 329 328 328 327 326 327 325 326 326 326 326 325 324 323
328 329 330 329 329 330 330 330 330 331 328 328 328 328 328 327 326 326 326 324 325 325 325 325 325 326 327 327 328 327 327 327 326 326 326 326 327 326 326 326 322 321 321
327 328 329 329 330 329 329 328 330 330 329 328 327 328 326 326 325 324 325 326 325 324 325 325 325 326 326 326 327 327 326 326 326 325 325 326 326 326 326 326 322 322 323
326 327 329 329 331 331 327 328 328 330 330 329 327 326 326 325 325 326 325 326 325 325 325 325 325 326 326 327 327 327 326 326 326 326 326 325 326 326 326 327 323 320 319
326 326 328 329 330 331 327 327 326 328 328 329 327 326 326 325 326 326 326 326 326 326 326 326 324 324 326 326 325 324 325 325 325 326 327 327 326 327 326 325 318 321 319
326 325 327 328 329 331 328 326 325 328 327 328 328 325 326 325 325 326 326 327 327 325 324 324 324 325 322 322 324 324 323 322 320 322 320 323 325 322 319 324 322 325 322
325 325 326 327 329 330 329 325 325 326 326 326 327 327 325 325 325 325 326 326 326 326 325 325 326 326 323 322 323 323 322 320 320 320 321 321 320 319 320 322 323 323 319
325 325 325 327 328 329 329 325 325 326 325 325 325 327 326 327 327 326 326 327 326 326 326 325 325 326 324 321 322 324 323 322 319 319 318 317 316 315 318 321 321 317 314
325 325 325 326 327 328 329 325 324 324 324 324 324 324 324 324 327 327 325 325 326 328 327 327 325 325 325 322 321 320 322 321 319 316 314 313 312 310 310 311 311 312 311
326 326 325 325 326 328 328 326 325 324 323 321 322 323 323 323 326 326 326 326 326 326 326 325 325 325 324 320 319 319 318 318 317 316 315 312 310 310 309 309 308 306 303
326 326 325 324 324 327 328 328 326 325 324 323 320 322 323 323 324 326 327 326 326 326 326 325 324 322 319 317 318 317 317 315 316 316 314 312 311 311 310 309 308 307 306
326 325 324 323 323 324 326 326 326 326 324 323 322 320 321 322 321 323 324 326 326 326 324 324 324 322 319 318 318 317 316 315 316 315 314 313 312 311 310 309 308 307 303
325 325 324 323 323 323 324 324 325 324 325 324 323 322 321 318 319 322 322 323 322 321 321 322 324 322 320 319 318 318 318 317 316 315 314 313 312 312 308 309 308 305 301
325 323 323 323 322 322 323 323 323 324 325 325 324 324 324 323 323 320 319 320 318 319 322 322 321 321 321 320 318 316 316 316 315 315 314 313 312 311 310 310 307 303 298
324 322 323 323 322 322 322 323 323 323 323 324 325 323 324 323 324 324 323 318 317 316 317 318 320 320 319 319 318 317 315 314 314 313 313 312 312 312 312 310 306 300 298
323 321 322 322 322 322 322 323 323 323 323 323 324 322 321 322 320 319 320 318 322 320 316 314 315 316 317 317 316 314 314 312 312 312 312 312 312 311 311 309 304 298 295
323 320 320 322 322 322 322 322 323 323 323 323 323 322 322 320 322 322 321 320 321 322 320 318 315 313 313 313 313 313 312 312 312 311 311 311 311 309 309 305 299 296 295
323 322 319 322 322 322 323 322 323 323 323 323 323 323 321 320 321 321 321 320 320 321 321 320 319 317 315 313 312 312 312 312 311 309 310 310 308 308 304 300 297 296 295
323 322 321 322 322 322 322 323 323 323 323 323 323 323 319 319 321 322 322 321 320 320 320 319 319 319 318 318 316 314 313 312 311 311 310 309 308 304 301 300 298 295 295
324 323 322 323 322 322 322 323 323 323 323 323 323 323 322 319 320 321 322 322 321 320 319 318 317 318 318 318 317 317 316 314 313 311 310 309 307 303 301 300 298 296 295
324 324 323 324 323 323 323 323 324 324 323 323 324 324 323 322 321 321 321 321 321 320 319 318 317 316 316 316 317 317 316 315 314 313 311 309 306 303 301 299 297 296 296
324 325 324 324 324 323 324 324 324 324 324 323 323 324 324 323 322 321 321 321 320 320 319 318 318 317 317 316 315 315 314 314 313 311 310 307 304 302 300 298 297 296 297

GFSGL_925_thetae_036.txt.gz
Theta_e
332 333 334 333 332 331 332 332 333 333 332 332 331 331 330 329 329 330 330 330 330 331 332 331 326 329 330 329 329 328 327 328 331 328 326 326 325 325 325 324 323 322 324
331 333 334 332 332 332 332 332 332 332 332 331 331 330 331 331 331 330 330 330 331 331 330 330 330 331 327 327 329 329 328 329 330 328 327 326 325 325 324 324 323 322 319
330 332 333 333 332 332 332 332 332 332 332 332 331 330 330 331 330 330 330 330 330 330 330 329 331 331 329 328 330 331 330 330 327 326 326 325 325 324 324 323 322 320 317
330 331 333 333 333 332 332 332 332 331 331 332 331 331 330 330 330 330 330 330 329 330 330 331 331 331 332 332 332 332 331 328 327 326 325 325 325 324 324 323 323 323 322
329 330 333 332 332 332 332 332 332 331 330 331 331 331 330 330 330 329 328 329 328 329 329 330 330 331 332 332 332 330 330 328 328 326 325 325 325 325 325 322 322 321 320
329 329 332 332 332 332 332 332 332 331 331 331 331 331 330 328 326 327 328 328 328 329 328 328 328 327 328 329 330 330 329 327 327 326 325 325 325 325 324 319 319 319 323
328 329 330 331 331 332 331 331 332 332 331 329 330 330 330 328 325 325 327 328 327 328 329 329 328 327 329 327 328 328 327 327 327 326 325 326 326 326 324 319 321 322 322
327 328 329 331 331 332 329 330 332 332 331 327 327 330 329 324 323 325 327 327 327 326 326 326 326 328 326 326 325 325 325 326 326 326 326 326 326 326 326 324 322 324 322
326 327 327 330 332 331 329 329 331 332 331 330 328 326 327 323 323 326 328 327 326 325 325 326 326 326 327 326 326 324 325 325 325 326 327 326 326 326 326 325 324 322 322
325 326 326 329 332 331 329 328 330 331 332 331 326 326 325 325 325 326 329 328 325 325 324 324 326 326 325 325 326 325 323 323 324 326 326 326 326 326 326 326 322 323 324
323 325 326 328 331 333 331 329 329 328 331 330 327 326 327 324 326 326 328 326 325 324 325 325 323 322 322 322 326 325 323 324 324 326 327 327 324 324 325 327 323 327 325
324 324 325 326 330 332 331 329 327 328 329 331 330 328 329 324 325 326 327 327 326 326 327 327 325 322 321 323 324 323 321 324 324 324 324 324 324 324 324 324 323 321 320
325 324 325 326 327 331 332 329 328 327 325 327 331 330 328 325 325 326 327 327 327 326 328 328 325 324 321 322 323 321 321 324 325 325 325 325 324 321 318 317 315 313 313
326 326 326 326 326 329 331 329 327 325 322 323 326 330 331 329 326 326 326 326 327 328 327 326 325 324 325 321 320 321 324 324 325 323 319 316 315 314 314 314 313 313 310
326 327 327 326 326 327 329 330 328 327 324 320 322 325 330 331 330 327 328 328 328 329 329 325 326 326 323 323 322 321 322 321 320 319 317 316 316 316 316 315 315 313 311
327 327 328 326 326 325 326 328 328 328 326 323 320 321 323 327 329 328 328 328 328 327 327 328 328 326 323 323 323 322 322 320 320 320 318 317 316 316 316 316 315 316 315
328 327 326 326 325 324 324 326 327 327 326 324 323 319 320 322 322 326 327 327 327 326 329 329 328 325 322 320 321 321 321 320 319 319 319 318 317 316 315 316 316 316 313
329 327 326 325 325 324 324 324 323 323 326 326 323 322 320 320 320 322 323 323 323 324 326 326 327 325 322 320 320 320 320 321 320 320 320 319 318 316 315 316 316 315 312
330 327 326 325 325 323 324 324 322 322 322 323 324 324 323 322 321 319 321 321 321 321 321 322 322 321 322 321 321 320 319 320 320 320 320 319 318 316 316 315 316 313 309
331 328 327 326 325 324 323 324 323 323 323 322 323 324 323 322 322 320 317 319 319 318 319 319 320 321 321 321 321 320 320 319 319 319 319 319 318 317 316 316 315 311 305
330 328 326 327 326 325 323 323 323 323 324 324 323 323 322 322 322 322 324 324 323 321 321 318 317 317 318 319 320 319 318 318 318 318 318 317 317 316 316 316 315 309 303
330 329 326 327 327 326 325 323 323 323 323 324 324 324 322 322 320 320 321 322 322 322 321 321 320 318 316 316 317 318 317 317 317 317 317 316 316 315 315 315 313 305 301
329 329 327 327 327 327 326 325 323 323 323 323 323 324 322 324 323 322 321 321 322 322 321 321 321 320 318 317 316 315 316 316 316 316 316 316 315 314 314 313 309 304 302
329 329 328 327 327 327 327 326 326 324 324 323 323 323 324 324 324 323 323 323 324 324 323 322 321 320 320 319 318 318 317 316 315 315 316 315 315 314 314 311 307 306 302
329 329 329 328 328 327 327 327 327 327 325 324 324 324 324 324 325 324 324 324 325 325 325 324 323 322 320 319 319 319 319 319 319 319 317 316 316 315 312 309 308 303 299
328 329 329 329 328 328 328 328 328 328 327 327 326 326 326 326 326 326 325 325 325 326 326 325 324 323 322 321 320 319 319 319 319 318 317 317 316 314 311 309 305 298 296

GFSGL_925_thetae_042.txt.gz
Theta_e
333 334 333 334 334 333 333 334 335 335 333 332 332 331 330 330 331 331 331 332 330 328 327 327 326 324 329 330 332 332 331 332 329 328 328 327 328 326 326 325 322 320 323
333 334 332 334 333 335 333 334 334 335 333 332 331 331 330 329 330 331 331 331 330 328 327 328 326 329 330 330 329 327 328 330 327 326 328 327 325 324 323 323 323 324 322
333 332 334 334 335 334 334 333 333 333 333 331 331 331 331 331 330 331 331 331 331 328 327 326 330 328 331 330 329 328 328 327 326 326 326 325 324 323 324 323 323 323 323
333 334 334 333 334 335 333 333 333 333 333 331 331 331 330 331 331 331 332 331 332 328 330 332 332 328 330 328 328 330 328 326 325 325 324 324 323 322 322 321 320 320 320
332 334 333 333 331 334 334 334 333 333 333 332 331 331 330 330 331 331 331 331 332 332 332 333 331 332 330 331 331 329 327 326 325 325 324 323 322 321 320 319 318 317 316
331 334 332 333 332 332 334 334 332 332 332 332 331 331 331 329 330 330 330 329 329 329 330 330 330 330 330 331 330 328 327 325 325 325 324 323 322 320 319 319 317 317 317
331 334 333 332 330 331 333 334 332 332 331 331 330 331 330 326 328 330 329 330 330 328 329 331 330 329 330 330 329 326 326 325 325 324 324 323 322 320 319 318 318 317 316
331 331 332 333 331 332 332 334 334 333 332 331 331 331 327 325 326 328 330 329 329 329 331 330 330 330 329 329 328 326 325 325 325 324 324 323 322 321 320 319 318 318 317
330 331 331 332 330 331 334 335 333 331 330 331 330 329 325 324 327 330 331 329 328 329 329 328 327 327 327 328 327 325 326 325 325 325 324 324 323 323 321 319 323 323 321
329 330 330 332 331 330 331 334 335 330 331 330 330 328 326 326 327 328 328 327 325 326 327 326 324 325 326 325 326 325 324 325 325 325 324 324 324 324 322 324 323 321 320
329 330 330 332 331 330 329 332 332 331 331 330 330 328 327 326 328 328 327 327 326 326 324 324 325 325 326 326 326 326 325 325 325 325 324 325 324 324 321 324 324 323 321
328 329 331 332 332 331 330 331 332 333 330 329 330 328 327 327 328 327 326 326 326 326 324 323 325 325 326 326 327 326 326 325 325 325 325 326 326 324 321 325 325 326 325
328 329 331 335 333 333 330 330 334 333 330 330 330 330 328 328 327 326 325 327 325 326 323 322 322 325 325 326 328 326 327 326 327 327 327 327 327 326 325 327 326 325 323
329 331 331 333 335 333 331 329 329 334 333 331 331 330 329 328 328 327 325 326 327 326 325 321 322 324 324 326 326 327 328 328 327 327 327 328 328 326 328 328 326 322 320
329 331 331 333 335 334 331 329 327 326 333 333 332 331 330 329 329 328 324 327 327 326 323 321 323 323 322 323 324 324 325 327 328 327 327 326 326 326 326 324 322 318 316
329 330 330 330 331 334 332 328 327 325 322 330 334 332 330 329 329 328 326 328 329 328 326 326 327 325 323 322 322 324 327 327 326 327 327 325 324 323 322 321 319 317 317
330 329 329 330 329 333 334 332 329 325 324 320 325 333 331 330 329 328 327 327 328 328 330 328 327 327 326 325 325 325 325 325 325 324 322 321 319 318 319 318 317 319 318
330 330 329 329 328 329 332 334 332 330 328 323 319 323 328 331 330 328 328 328 328 329 329 329 329 328 326 325 325 326 325 325 322 323 321 319 318 319 319 320 320 320 320
331 330 330 328 329 327 330 330 332 332 331 329 322 320 326 329 329 328 328 328 328 329 329 331 331 331 326 325 324 324 324 325 325 323 323 323 321 321 320 320 320 320 320
331 330 329 329 329 327 327 328 328 331 331 330 326 322 326 327 326 326 327 328 329 329 329 329 331 331 328 326 325 323 323 323 324 323 322 322 322 322 321 321 320 319 319
332 330 329 331 328 328 327 328 327 327 329 329 329 326 320 322 324 326 326 327 329 330 330 330 330 329 327 328 326 324 322 322 323 324 323 323 323 323 323 322 321 320 318
333 331 330 328 331 329 328 327 327 327 326 326 326 327 324 320 320 321 322 324 325 327 326 327 327 326 325 324 324 324 324 323 323 323 323 324 324 323 323 323 322 321 320
334 334 332 330 329 331 329 328 327 327 326 325 325 325 323 323 322 321 321 320 320 320 321 321 321 322 322 322 321 323 324 324 323 323 323 323 323 323 323 323 322 321 320
334 335 335 332 330 331 331 329 327 326 326 326 326 325 323 324 325 323 322 323 323 323 321 320 319 320 323 323 321 321 322 322 322 322 322 323 323 322 322 322 322 321 320
335 335 336 335 332 330 332 330 329 327 325 325 326 326 324 325 326 326 325 323 323 323 325 325 325 324 321 322 324 323 322 320 320 320 320 321 321 322 321 320 320 320 318
332 335 334 336 335 333 331 333 330 329 328 325 325 326 327 326 326 327 326 325 324 323 323 324 325 325 325 324 322 323 323 323 321 319 318 318 318 319 320 320 319 319 315

GFSGL_925_thetae_045.txt.gz
Theta_e
334 333 334 332 333 332 333 334 335 334 332 331 332 331 330 330 331 329 329 330 328 328 327 326 326 325 327 329 328 329 330 329 328 328 329 328 328 328 327 327 327 326 324
332 333 333 334 333 333 333 333 334 334 333 332 330 330 330 329 330 330 331 331 330 327 327 327 326 328 330 328 328 329 329 328 328 326 326 326 326 325 325 322 323 323 319
333 333 333 333 334 333 333 333 332 333 332 331 330 330 330 330 329 330 330 330 329 326 327 326 328 329 330 328 326 328 327 327 325 327 326 325 323 323 323 322 321 321 321
334 333 334 333 334 333 333 333 333 332 332 331 331 330 330 329 330 331 331 330 328 328 328 330 327 329 328 328 327 327 326 325 325 326 324 324 324 323 322 321 320 319 317
333 333 332 332 333 333 333 333 333 332 331 330 331 331 331 331 331 330 331 331 331 332 331 330 329 330 328 328 329 327 326 325 325 325 324 323 322 322 321 320 318 317 316
335 333 331 330 333 333 333 332 333 332 332 330 331 329 330 330 330 330 330 328 330 329 329 330 330 330 330 330 329 328 326 325 324 323 322 322 320 319 319 318 317 317 316
334 333 332 331 330 333 333 331 332 332 331 330 331 331 329 329 330 329 329 329 328 328 330 331 329 330 330 329 327 326 325 324 323 323 322 320 320 320 320 318 317 317 316
334 333 332 330 329 333 333 332 331 331 330 329 331 328 326 327 329 329 328 327 329 331 330 330 329 329 328 327 326 325 324 324 323 323 323 321 322 320 320 320 318 316 315
332 334 332 330 332 332 332 333 332 331 331 331 329 326 325 326 329 330 329 329 330 329 329 330 329 328 328 326 325 324 324 324 324 323 323 323 323 323 322 319 317 316 316
330 332 332 330 332 332 332 332 330 329 331 329 327 325 325 327 328 329 327 327 327 325 325 325 326 327 328 326 325 324 323 324 324 323 322 323 323 323 321 319 318 318 319
330 330 332 331 331 331 332 332 331 330 330 329 327 325 326 327 327 327 326 326 325 323 324 324 324 325 325 325 325 324 324 324 324 323 323 321 321 320 320 323 321 319 320
330 330 332 329 329 331 332 332 330 331 330 328 328 326 326 326 327 327 327 326 325 324 325 325 325 326 325 325 325 325 324 325 324 323 322 321 322 321 322 323 322 325 321
330 332 331 330 329 329 331 333 331 329 329 329 328 327 327 325 326 326 326 326 325 323 325 325 325 326 326 326 326 325 325 325 324 324 324 324 324 323 322 323 325 324 324
329 332 333 332 330 328 332 332 331 329 329 329 328 327 327 325 326 325 326 325 325 322 322 324 324 325 327 326 325 325 325 325 325 325 324 324 325 325 321 322 324 324 322
330 334 334 333 331 329 328 332 332 329 329 329 329 328 327 326 326 325 326 324 324 324 321 322 322 324 326 326 326 326 326 326 326 326 325 325 326 327 326 327 327 325 321
330 331 334 333 333 331 329 327 328 333 331 330 330 328 327 327 326 325 326 326 326 322 321 322 322 323 325 325 326 325 327 326 326 326 326 327 328 327 327 327 326 323 320
330 330 331 333 334 332 329 326 320 321 331 332 330 330 328 327 326 324 324 328 327 323 322 325 324 322 322 324 324 324 325 327 327 327 327 327 326 325 326 325 323 321 318
330 330 329 330 331 333 330 327 323 320 320 326 332 331 330 328 327 326 325 328 328 326 326 325 327 324 320 321 322 323 325 326 325 325 324 325 325 325 323 322 321 319 318
328 329 328 329 329 330 333 331 327 324 320 320 327 331 330 329 328 327 326 327 327 327 328 329 328 328 326 323 321 321 323 324 325 324 323 323 322 320 318 318 318 318 317
329 328 328 327 328 327 331 332 331 329 327 322 320 325 328 328 327 327 327 327 327 327 327 328 329 330 328 327 325 324 323 324 324 323 323 322 322 320 317 317 318 318 319
329 329 328 328 327 327 326 329 329 330 329 327 323 321 322 328 326 325 325 326 327 328 328 328 328 330 330 330 330 324 324 324 325 325 324 323 324 322 320 319 320 320 319
330 328 328 329 327 327 325 327 328 328 330 329 326 324 321 324 326 326 326 326 326 327 328 328 328 328 328 329 328 326 325 324 323 324 324 323 322 322 322 322 322 321 321
331 329 328 327 329 327 327 325 327 326 326 329 328 325 322 322 322 323 323 323 325 326 328 329 330 329 329 328 328 326 326 325 324 322 322 323 323 322 322 322 323 323 322
330 330 329 328 327 328 329 326 326 326 326 325 326 325 324 322 320 320 320 320 320 320 320 325 328 326 324 325 325 323 322 322 324 323 323 323 323 323 323 323 323 323 323
331 332 330 329 328 327 327 328 326 326 326 326 325 324 324 323 322 321 320 320 319 318 318 317 315 318 324 323 321 322 322 321 321 321 323 323 323 323 323 322 323 322 322
331 332 333 332 330 329 327 328 328 327 326 325 325 325 324 323 323 324 323 321 321 321 321 321 321 321 321 321 318 317 320 323 323 321 321 321 322 322 323 323 322 322 321

GFSGL_925_thetae_048.txt.gz
Theta_e
334 333 333 333 333 332 332 333 334 333 332 332 332 332 330 330 329 329 328 329 327 327 326 325 324 324 326 327 327 328 327 327 328 329 327 326 324 326 328 330 330 329 326
333 332 333 332 332 331 333 334 333 333 331 331 330 329 329 330 330 328 329 330 328 327 327 326 325 324 328 328 327 328 328 328 328 328 327 327 326 326 325 324 326 322 320
331 333 333 333 333 333 332 333 333 332 332 331 330 330 330 328 328 329 330 330 329 326 327 327 328 329 328 328 328 328 328 327 327 327 325 325 324 323 322 321 321 321 321
332 333 333 332 332 333 332 332 332 332 331 331 330 330 329 329 329 330 330 329 327 327 326 328 329 328 326 327 327 326 327 326 326 326 324 323 322 322 321 320 319 320 320
333 333 331 333 332 332 333 333 332 331 331 331 330 330 331 330 330 330 331 329 329 330 330 328 329 328 327 326 326 326 325 324 325 325 324 323 323 322 320 319 318 317 318
333 333 331 331 331 332 332 332 332 331 330 331 330 330 331 330 330 330 330 330 330 329 329 329 330 328 326 327 327 327 325 325 324 324 324 323 322 321 319 317 316 317 315
333 332 331 330 331 333 332 331 331 331 330 330 329 329 329 329 329 329 328 328 328 328 330 329 329 328 328 328 327 326 325 325 325 323 323 322 319 319 318 318 317 318 317
333 332 331 330 330 332 332 331 331 330 330 330 329 329 328 329 328 328 327 327 330 330 330 328 329 328 328 326 325 324 323 323 323 322 321 320 320 319 320 319 318 317 316
332 333 331 329 330 332 332 331 331 330 330 329 328 326 327 328 329 327 327 328 329 329 329 328 328 327 326 325 324 323 323 322 321 321 320 320 320 321 321 319 316 316 315
332 333 331 330 330 331 332 331 331 330 330 329 326 326 325 327 328 327 327 327 327 327 328 328 328 326 325 324 324 322 322 322 321 321 320 321 322 321 319 318 318 315 315
333 332 331 330 330 330 331 330 330 330 329 326 325 325 326 326 327 327 326 326 325 324 324 325 326 326 325 324 324 322 322 322 322 321 320 320 320 320 319 318 316 316 317
328 332 332 331 331 331 331 330 329 330 328 326 325 325 325 326 327 325 325 325 324 324 324 324 324 325 324 325 324 323 323 322 321 320 320 320 320 319 321 319 317 316 318
328 330 331 331 331 332 331 331 329 330 328 327 325 325 325 326 326 326 325 325 324 324 325 325 325 324 324 325 325 324 323 322 322 321 320 320 320 320 323 322 321 323 324
329 330 330 330 331 331 331 330 330 329 328 328 326 324 325 324 325 326 326 325 323 325 324 325 325 325 325 325 325 324 324 323 324 323 322 322 322 320 323 322 323 324 323
330 329 328 328 330 331 331 331 330 329 328 328 326 326 325 324 325 325 325 325 322 324 323 322 324 325 324 322 323 325 324 324 323 323 324 323 324 323 321 321 323 323 321
329 330 329 328 328 330 331 331 330 328 327 327 327 327 326 325 325 325 325 325 322 322 323 322 324 323 322 322 323 325 324 324 324 324 324 324 324 325 323 321 321 323 323
330 331 330 329 328 327 329 329 327 330 328 328 328 328 327 325 325 325 325 324 324 321 322 322 324 325 323 323 323 324 325 325 325 324 324 324 325 325 326 326 325 325 325
330 332 331 331 330 328 326 325 326 324 325 330 329 329 328 326 325 325 325 326 322 320 321 322 322 324 325 325 326 325 326 326 325 325 325 325 325 326 326 326 325 325 325
328 330 331 332 331 330 328 327 324 322 323 328 330 329 329 327 326 324 324 327 325 322 321 323 325 322 323 325 325 325 323 324 325 325 325 325 325 326 325 324 324 324 324
328 328 329 329 330 331 329 327 323 320 320 325 329 330 329 328 327 325 324 325 327 326 325 324 323 326 325 320 323 323 323 324 326 326 325 325 325 325 324 324 323 322 320
327 327 327 327 328 328 330 329 327 324 321 319 325 331 331 329 327 326 326 324 325 327 327 327 327 328 328 328 326 321 320 320 322 324 324 323 323 324 324 324 321 319 317
326 326 326 326 327 326 326 329 329 328 326 324 320 321 329 330 326 326 326 325 325 326 326 327 327 327 327 328 329 329 327 325 324 322 322 323 323 323 322 320 320 319 318
328 326 326 326 325 326 326 325 327 328 329 328 326 323 321 325 325 325 326 326 326 326 326 326 327 327 327 327 328 329 329 329 327 327 323 323 323 323 322 321 321 320 318
328 327 326 326 326 325 325 324 324 326 326 328 328 326 325 323 322 323 324 324 326 326 326 326 326 326 326 326 325 326 326 327 328 326 326 323 322 322 322 321 321 321 321
331 329 327 327 326 327 325 324 324 324 324 324 327 327 326 326 324 323 323 323 323 322 322 322 323 324 325 326 327 328 328 328 327 326 324 324 324 323 322 321 321 321 321
331 331 330 327 327 327 326 326 325 324 324 323 323 325 325 325 326 325 324 323 322 322 322 321 320 319 319 319 323 327 328 325 323 322 322 321 321 322 322 322 322 321 321